Вернуться в каталог

SL-14 DEB

АктивенPO
NORAD 26002·DEBRIS·🇷🇺 Russia

Запущен Sep 28, 1991 с Plesetsk Cosmodrome

Loading…

Ближайшие Пролёты (ближайшие 24 часа)

TLE

СвежийSource: Space-Track

Эпоха: Sep 14, 2026, 03:35 UTC

1 26002U 91068M   26257.14982394  .00000402  00000-0  14952-2 0  9995
2 26002  81.9633 248.5748 0145240 111.0172  17.5038 12.86750957699041

Отслеживайте SL-14 DEB в реальном времени с AllMySat

Download on the App Store